Regional Weather Roundup
Issued by NWS Goodland, KS

Home | Current Version | Previous Version | Graphics & Text | Print | Product List | Glossary On
Versions: 1 2 3 4 5 6 7 8 9 10 11 12 13 14 15 16 17 18 19 20 21 22 23 24 25 26 27 28 29 30 31 32 33 34 35 36 37 38 39 40 41 42 43 44 45 46 47 48 49 50
525
ASUS43 KGLD 132059
RWRGLD

GOODLAND FORECAST AREA HOURLY WEATHER ROUNDUP
NATIONAL WEATHER SERVICE GOODLAND KS
200 PM MST WED DEC 13 2017

...OFFICIAL OBSERVATIONS...

CITY           SKY/WX    TMP DP  RH WIND       PRES   REMARKS
GOODLAND KS    SUNNY     55  14  19 NW25G36   29.96F
HILL CITY KS   SUNNY     58  17  20 N24G33    29.93F
IMPERIAL NEB   SUNNY     53  16  23 NW21G30   29.97F
MCCOOK NEB     SUNNY     55  16  21 NW23      29.95S
AKRON CO       SUNNY     51  11  20 N25G33    30.02F
BURLINGTON CO  SUNNY     53  13  20 N15G30    29.99F
LIMON CO       SUNNY     51  10  19 N14G23    30.04F
$$

...UNOFFICIAL OBSERVATIONS...

CITY           SKY/WX    TMP DP  RH WIND       PRES   REMARKS
LENORA KS        N/A     55  32  41 NW17        N/A
NORTON KS      SUNNY     55   3  12 NW24G32   29.91
SHARON SPRINGS   N/A     55  17  22 NW18G26     N/A
TRENTON NEB      N/A     53  32  45 NW13        N/A
YUMA CO        FAIR      50  14  23 NW22      30.00F
$$




USA.gov is the U.S. government's official web portal to all federal, state and local government web resources and services.